GFSSGP_500_spd_057.txt.gz
Wind_Speed
32 32 32 32 31 29 26 26 21 26 25 22 20 19 18 13 15 17 13 11 6 9 14 16 18 19 20 23 25 26 28 33 33 32 33 32 31 29 26 25 24 24 25 25 23 23 24 22 21
36 34 34 34 33 30 24 24 24 30 21 27 23 22 20 21 21 19 13 10 8 7 13 12 13 14 16 22 24 26 29 33 34 31 36 36 33 31 31 30 27 27 27 26 26 27 25 24 24
38 37 36 37 35 30 17 16 23 24 33 25 23 25 24 25 22 20 13 9 6 10 11 11 12 12 16 20 24 28 32 33 34 35 38 39 35 32 32 32 32 30 30 30 29 30 28 28 27
39 40 39 40 36 32 31 15 22 21 37 31 28 28 26 25 21 23 14 10 10 8 10 10 11 14 20 23 23 29 32 35 36 36 38 36 35 32 31 32 33 32 32 32 32 30 30 26 26
40 41 42 41 37 37 35 27 26 34 31 32 34 31 27 27 28 25 20 11 9 8 7 9 13 18 21 22 27 28 29 33 35 38 37 34 32 33 33 32 33 34 33 32 32 31 29 26 23
40 40 42 42 37 37 38 34 35 38 36 36 36 34 27 33 30 29 24 15 10 9 10 15 18 22 19 21 25 27 32 33 35 36 34 32 32 33 33 33 33 32 33 33 32 31 28 25 22
38 40 41 42 39 36 34 38 40 38 37 38 37 35 31 40 31 33 28 18 13 12 14 17 20 22 22 25 26 30 30 32 33 32 33 32 32 34 33 31 32 33 34 35 33 30 27 24 21
38 40 42 42 40 44 35 39 41 38 40 37 43 40 33 42 36 34 29 21 17 13 18 21 23 25 25 25 26 29 29 31 33 32 34 32 30 32 31 31 32 34 34 35 33 30 26 24 22
38 47 45 40 42 41 38 39 39 38 45 44 48 47 44 47 36 34 31 25 20 20 22 24 27 25 25 26 31 34 36 37 33 34 36 33 32 31 30 31 32 35 35 33 31 29 26 25 23
48 54 55 47 42 45 41 40 38 39 50 50 52 47 43 45 42 39 35 27 23 22 26 29 31 29 28 31 34 35 39 38 36 35 37 36 34 33 33 33 34 37 35 31 29 28 26 25 25
59 56 51 47 44 45 43 42 41 45 47 47 49 50 47 49 47 42 38 29 29 27 31 33 32 31 32 35 37 36 39 39 39 37 38 36 36 36 36 35 37 36 33 30 30 28 27 26 27
57 65 61 53 49 51 46 44 46 48 49 50 49 50 53 52 51 47 38 32 32 30 32 37 36 35 34 37 36 36 39 42 41 39 40 39 37 38 38 36 40 33 32 29 31 29 28 28 29
52 49 56 63 61 58 55 47 49 49 48 50 54 52 58 55 53 50 45 39 35 37 36 39 41 37 37 38 38 39 42 45 43 41 42 39 37 37 38 38 39 36 29 30 30 30 29 28 29
50 54 52 57 66 64 64 54 55 56 50 51 57 61 63 58 54 53 49 43 40 38 42 44 42 40 40 40 40 42 46 46 45 44 45 41 37 37 38 38 37 32 31 31 32 28 31 32 32
53 57 58 59 56 59 66 68 68 57 56 56 55 60 61 56 57 55 52 47 43 42 45 48 45 43 41 41 42 45 48 44 44 42 46 40 37 36 38 37 35 31 31 32 32 31 34 34 37
57 60 62 57 58 57 61 67 63 63 59 59 55 60 56 56 59 55 53 51 46 47 50 49 49 43 41 42 46 48 49 45 42 39 42 38 36 37 36 36 37 32 32 32 30 33 36 37 38
57 59 61 59 56 58 60 64 54 62 65 64 58 58 58 57 57 56 56 55 49 51 52 52 49 44 45 45 49 48 47 45 40 39 41 37 38 36 35 38 37 32 31 30 33 35 38 39 39
60 63 62 61 58 57 59 65 59 55 63 67 68 62 56 58 59 56 60 60 56 56 54 50 47 44 47 47 50 50 50 44 39 41 41 38 38 35 35 39 34 30 29 31 34 36 38 39 40
64 68 70 65 61 54 46 62 62 59 61 68 70 67 68 60 60 59 62 68 59 57 54 50 45 46 46 49 51 53 52 45 40 42 39 40 38 34 38 37 32 29 30 33 34 36 37 38 37
67 69 70 71 69 54 47 57 68 63 64 61 66 73 73 70 61 66 70 65 61 57 54 49 48 48 48 51 54 54 54 47 43 43 38 41 36 34 38 35 31 28 32 34 34 34 35 35 33
69 73 75 73 72 63 70 60 71 70 64 64 62 68 74 72 69 69 70 67 62 58 56 53 52 49 50 56 55 53 50 46 42 38 37 39 33 36 36 33 30 31 34 32 33 33 33 31 28
63 63 67 75 74 66 73 61 72 68 69 67 61 61 64 72 73 76 70 69 68 63 60 55 51 47 53 55 54 48 44 43 36 35 36 35 35 37 34 31 31 32 33 31 32 32 31 29 24
40 42 45 62 71 72 69 57 58 68 69 69 64 59 59 62 64 67 67 66 59 59 58 56 54 49 55 54 49 42 40 32 31 33 34 34 35 34 32 30 32 31 31 30 31 30 27 23 23
37 38 39 42 44 52 67 57 51 55 58 50 52 62 61 59 55 61 70 68 66 63 60 61 51 52 53 49 40 32 28 31 29 33 34 32 32 30 28 30 31 28 29 27 28 28 22 21 21
23 22 28 34 45 54 49 60 57 36 37 41 42 51 56 53 53 49 57 64 61 62 64 60 52 55 49 39 31 27 28 28 29 32 31 31 28 28 28 29 28 27 27 25 26 25 21 21 20
22 22 30 32 33 41 39 57 62 50 27 38 43 52 55 48 44 45 46 51 50 50 52 54 54 51 37 30 28 28 27 26 30 30 29 30 28 28 28 28 27 27 27 25 26 26 20 21 19
18 31 17 31 31 38 39 36 44 57 50 41 29 46 51 45 44 42 45 43 40 39 39 41 44 36 30 29 27 26 24 27 27 27 28 28 29 27 27 27 27 28 28 26 28 24 20 20 19
22 20 21 29 29 27 31 28 38 37 39 42 36 35 45 42 44 42 41 36 38 37 36 35 32 30 29 26 25 23 25 26 26 25 27 28 27 27 26 26 26 28 25 24 26 22 20 19 20
13 20 25 22 28 23 15 14 30 38 37 40 33 37 34 42 43 41 38 36 36 33 32 31 30 29 27 25 24 23 26 26 25 25 27 25 26 27 25 25 26 23 22 24 23 20 18 19 21
7 11 22 24 26 27 20 26 20 36 30 35 44 46 35 39 44 41 40 39 35 35 33 30 29 27 26 25 23 24 26 24 24 25 25 23 27 26 25 26 25 22 21 21 21 17 18 21 19

GFSSGP_500_spd_060.txt.gz
Wind_Speed
33 33 31 31 30 28 24 22 21 17 21 28 27 28 24 13 21 30 27 20 10 9 8 10 10 11 12 12 14 17 20 24 28 29 29 32 35 33 28 25 25 26 27 28 27 26 26 24 23
35 35 34 32 31 29 24 20 17 14 22 35 32 21 21 14 28 30 28 22 13 8 8 8 11 9 10 14 15 16 23 26 30 30 30 31 34 32 28 27 28 29 30 29 29 29 29 27 25
37 38 38 35 33 28 24 5 22 20 25 21 30 22 24 26 30 29 23 15 12 9 10 8 9 10 13 17 19 21 27 27 30 32 34 35 32 29 29 30 30 32 31 31 31 30 30 29 28
37 39 39 38 33 28 23 24 10 20 26 30 27 21 27 32 36 26 22 17 12 12 9 5 6 11 17 21 21 23 26 30 32 33 33 33 32 32 31 32 33 32 31 30 30 30 31 30 28
36 40 41 39 35 32 32 26 13 21 19 32 26 26 28 32 34 27 25 22 16 12 8 6 8 13 18 19 20 23 26 30 29 32 32 32 32 30 31 32 32 32 31 31 32 33 32 30 27
38 38 39 41 36 34 33 36 23 28 26 22 20 20 24 33 32 33 29 28 22 15 11 12 12 13 17 18 21 23 23 27 31 32 30 31 31 30 31 32 31 31 31 32 32 32 31 29 27
39 42 38 40 39 39 23 22 29 23 33 38 25 21 25 35 31 32 33 29 27 22 13 15 15 15 18 21 22 21 25 29 31 33 31 31 32 30 29 30 30 30 31 30 31 31 30 28 28
38 37 49 43 41 41 36 38 31 30 24 35 24 25 22 32 37 41 36 31 30 27 17 20 18 17 19 21 22 24 28 32 32 33 32 32 33 31 28 28 30 31 32 31 31 30 28 28 27
44 47 46 43 43 39 33 42 40 43 37 30 26 33 40 38 33 37 34 34 33 29 22 23 22 20 21 23 25 29 31 32 30 33 35 33 34 34 28 29 31 30 30 32 32 29 26 27 26
55 53 55 38 39 43 39 43 42 40 34 36 34 31 45 49 47 38 37 34 36 33 27 27 27 23 24 23 24 28 30 32 31 36 37 34 35 35 29 29 31 30 31 34 34 29 27 28 27
54 58 50 48 43 43 41 44 44 43 37 36 43 45 50 49 50 47 46 44 42 35 33 32 36 28 27 26 26 30 31 33 32 37 39 34 35 35 31 30 31 29 32 35 33 29 28 28 28
52 51 54 56 52 51 56 52 45 48 45 42 22 41 53 45 47 48 45 49 41 36 35 36 31 25 32 29 29 30 31 33 34 38 38 35 33 35 34 32 30 29 33 35 32 30 29 29 27
48 45 48 52 58 59 56 64 61 49 45 40 43 28 35 46 49 49 47 51 38 38 45 29 28 37 36 35 35 35 35 35 36 40 37 33 33 38 34 33 29 29 33 34 32 32 31 28 28
48 50 51 50 53 58 68 63 58 61 50 47 48 46 36 41 41 51 56 56 53 46 45 43 45 39 38 35 38 38 36 37 38 42 39 30 32 37 33 32 30 31 34 34 31 32 31 28 30
48 51 54 54 52 52 54 63 72 56 55 51 49 49 54 42 35 53 44 51 50 50 49 47 45 41 40 40 40 39 38 37 40 43 44 34 34 36 33 33 30 31 36 36 34 31 27 30 33
47 51 53 47 52 50 54 61 51 51 64 62 57 49 51 55 57 51 53 53 55 54 50 47 46 45 44 41 43 40 37 38 40 41 43 41 36 37 35 34 32 32 36 35 35 31 33 34 34
47 51 51 50 52 54 53 59 53 50 54 67 67 62 57 54 58 67 53 52 57 53 49 48 45 49 49 44 43 42 40 39 42 43 44 44 38 38 36 35 34 33 34 34 32 30 34 35 35
52 55 55 55 48 53 47 58 55 54 53 57 63 71 67 63 61 59 57 56 56 58 52 47 47 48 51 49 43 40 41 41 44 48 49 46 40 38 36 35 34 33 33 33 31 34 34 34 35
58 60 61 59 58 58 46 55 59 58 58 56 58 58 66 68 64 60 57 55 56 63 62 48 51 50 50 49 43 42 43 44 44 51 50 44 39 37 34 35 34 33 33 31 33 35 34 34 34
59 63 65 66 65 66 63 67 64 61 60 61 61 58 58 63 67 64 58 56 61 67 67 51 49 50 51 49 43 43 45 43 45 50 48 39 36 33 32 35 34 32 33 31 34 34 33 34 34
57 60 62 65 65 62 69 71 69 65 64 64 57 61 58 59 59 65 69 64 63 69 71 50 49 51 51 50 42 43 44 43 49 50 41 37 32 31 32 34 32 31 32 32 34 31 33 33 31
56 52 55 60 60 65 61 72 68 67 67 66 64 66 62 58 62 61 70 72 73 72 74 58 53 52 51 49 45 42 43 43 50 47 38 30 29 29 33 32 31 30 31 31 29 29 31 32 29
32 38 36 39 42 52 62 66 79 71 70 68 67 65 65 61 58 62 64 61 66 75 71 65 59 57 51 48 47 46 42 42 49 42 32 28 29 30 32 30 30 29 32 29 28 27 28 30 27
29 37 40 40 43 50 67 53 79 75 73 70 65 65 64 64 58 59 58 57 52 61 68 64 62 60 48 44 48 49 43 44 46 34 29 27 28 31 29 28 28 30 31 27 28 28 27 29 26
24 27 32 34 34 46 48 44 71 69 67 61 33 42 47 55 58 56 56 59 52 52 59 62 60 57 49 48 52 51 43 43 41 31 29 27 28 30 26 26 29 30 29 27 29 30 27 30 26
22 26 32 34 30 29 32 43 47 57 55 38 40 36 34 32 40 53 60 54 50 47 47 50 55 51 47 50 50 45 44 43 36 31 29 28 28 25 24 27 28 29 27 28 30 29 28 30 27
20 23 23 36 31 41 32 33 38 39 45 47 33 44 45 48 45 53 58 51 46 49 41 40 42 42 44 48 45 40 40 37 32 29 29 28 24 22 25 27 28 27 27 28 30 27 27 29 27
20 19 24 25 34 28 23 30 26 33 56 40 34 31 52 56 51 50 43 47 45 38 34 34 36 38 35 30 30 34 35 32 28 29 27 26 23 23 25 26 27 25 26 27 29 25 26 26 22
18 21 18 22 30 27 27 15 22 27 59 48 30 19 44 41 27 35 48 47 40 36 36 34 34 29 30 30 31 31 31 27 27 25 25 24 24 24 25 27 25 26 28 27 27 24 24 22 20
22 18 21 36 22 20 23 12 7 29 45 51 31 27 38 44 44 45 45 45 39 38 36 34 32 28 29 30 28 28 25 24 25 24 24 24 24 23 26 24 25 28 28 27 23 21 22 20 20

GFSSGP_500_spd_063.txt.gz
Wind_Speed
36 36 36 36 32 26 21 18 21 21 16 11 24 27 30 34 35 29 23 17 7 9 10 11 9 8 6 9 14 15 15 16 19 21 23 27 27 27 23 22 23 24 24 23 22 21 21 21 22
37 39 37 39 33 27 21 22 15 14 14 17 28 35 41 36 37 32 23 28 13 11 10 10 10 5 4 6 10 12 14 17 21 22 23 25 26 26 24 24 23 24 23 23 24 24 26 27 27
37 42 40 38 35 26 20 25 27 17 18 23 33 41 39 42 35 30 24 24 19 14 12 12 8 5 6 10 15 14 15 18 21 23 26 26 26 25 25 26 26 26 24 23 24 26 28 29 28
31 38 40 41 34 28 25 32 23 15 11 27 31 36 41 45 35 29 24 19 15 17 14 12 11 10 12 13 13 14 18 18 22 26 28 27 27 28 27 27 27 25 24 25 24 25 26 27 27
30 35 38 41 36 31 28 31 24 23 12 22 35 33 30 36 33 29 25 20 21 19 14 13 14 13 13 14 14 16 17 19 26 28 27 27 26 28 28 29 28 26 24 24 27 27 26 26 26
42 34 40 36 34 34 33 35 37 32 24 18 23 16 28 35 33 30 29 27 26 23 19 16 19 15 15 15 17 17 17 21 26 28 29 28 26 28 28 27 28 26 25 25 26 27 27 24 23
32 44 37 42 32 39 37 44 44 39 32 27 24 20 18 25 34 33 26 29 28 27 25 22 23 20 19 17 19 20 20 24 26 26 28 31 29 27 27 25 26 26 26 26 26 27 26 22 21
35 43 51 42 40 32 35 48 49 44 41 35 30 20 22 29 31 34 28 31 29 31 28 28 25 26 21 19 20 21 21 24 24 28 29 32 30 27 26 24 25 25 25 26 28 27 25 23 23
41 52 54 44 42 34 28 42 50 45 50 44 37 29 26 32 38 38 36 37 33 27 29 28 26 30 24 21 20 21 22 24 26 29 30 32 31 27 26 25 25 26 25 26 28 28 26 25 25
45 58 58 42 36 46 37 37 43 50 45 41 38 34 34 38 41 40 40 18 26 31 30 27 26 30 28 23 21 20 23 24 26 30 30 31 32 28 26 26 25 27 26 26 28 29 27 25 26
44 42 45 48 45 37 40 42 41 44 42 37 34 42 33 34 44 47 46 44 42 38 30 28 30 32 32 26 20 22 24 26 28 28 30 31 33 27 26 27 25 27 28 26 28 29 28 27 26
44 41 40 46 46 51 45 42 53 41 45 42 42 44 44 44 38 42 44 34 43 45 43 36 37 38 37 30 22 23 23 26 30 30 30 31 33 30 30 29 27 28 28 27 28 29 30 29 27
44 41 42 45 50 55 54 51 49 53 53 40 46 43 49 53 51 45 44 45 37 43 47 44 41 40 44 21 28 24 24 27 29 29 29 30 31 32 31 31 27 28 28 27 28 28 30 28 27
41 44 45 44 45 49 57 58 58 58 54 50 39 44 48 53 51 49 52 46 44 49 48 49 50 42 35 35 36 28 28 29 30 30 28 30 30 34 34 32 28 29 28 27 28 28 28 27 27
41 44 45 45 46 47 51 57 57 57 59 59 56 41 45 49 52 45 38 47 53 56 53 52 53 48 42 41 38 33 36 32 31 31 30 29 32 35 37 36 32 32 29 29 28 30 30 26 28
44 45 45 41 46 46 47 56 48 46 53 62 55 59 47 50 51 47 47 37 54 54 50 49 50 48 41 40 38 39 38 36 34 36 36 33 34 38 38 36 34 33 31 31 30 30 29 29 31
42 43 45 45 45 47 50 54 44 46 49 50 54 64 57 52 54 55 50 50 51 49 46 50 51 49 42 40 37 40 41 39 36 36 39 39 39 42 40 34 33 32 32 31 32 32 29 31 30
44 46 48 47 50 50 48 53 52 51 51 51 53 54 59 63 56 55 54 54 58 56 53 52 51 51 47 41 41 41 43 39 35 34 37 37 38 42 38 35 33 31 31 30 30 30 29 33 30
48 49 51 48 54 60 60 61 56 56 58 57 54 55 57 56 69 57 57 57 59 58 57 57 52 51 49 46 46 43 43 41 35 35 36 37 39 41 39 35 32 32 30 30 29 28 30 31 29
51 54 53 55 55 59 61 62 58 60 60 59 59 58 57 55 54 64 63 60 65 62 61 63 60 51 50 51 50 46 43 37 35 36 35 36 40 42 40 33 32 33 28 29 28 28 29 27 28
51 54 56 58 57 59 63 67 63 58 62 62 58 57 59 59 54 56 57 66 70 72 70 67 65 55 47 50 47 44 42 36 36 37 36 37 40 41 36 31 33 31 28 28 27 27 27 26 27
53 50 54 58 59 63 56 70 68 61 64 64 63 62 62 57 56 55 56 58 61 63 65 68 68 65 49 44 45 44 41 38 40 39 33 36 39 37 29 32 33 29 29 27 27 26 25 26 26
42 35 41 47 45 60 63 69 73 68 69 66 65 64 61 58 58 51 54 54 58 58 56 62 63 63 50 46 47 48 44 40 42 40 37 36 39 33 31 33 32 28 28 26 25 25 25 26 26
26 31 36 35 37 52 60 56 71 70 71 68 68 66 62 59 58 59 52 50 59 58 56 53 49 53 45 47 46 45 45 43 40 40 36 34 36 31 34 33 28 29 25 25 25 24 25 26 28
15 20 27 29 35 35 33 41 57 67 69 71 68 68 60 61 60 58 58 54 50 58 57 50 50 48 39 43 44 42 43 42 40 43 37 36 33 32 33 31 27 27 25 24 25 24 26 29 27
24 22 25 33 37 39 33 36 39 38 48 59 66 62 57 65 64 59 61 57 51 49 50 49 47 44 36 36 39 44 43 41 42 41 35 37 30 33 32 29 26 24 23 25 24 25 27 28 24
25 24 23 32 34 42 36 31 29 30 29 36 42 43 49 43 61 46 53 55 55 54 51 49 40 39 37 34 35 39 37 38 42 35 37 32 29 31 29 26 25 23 24 24 24 25 27 27 23
25 23 22 26 40 35 30 20 28 25 28 30 49 56 46 41 31 40 43 52 54 56 52 45 36 37 41 34 31 32 33 36 33 32 29 26 28 28 25 24 24 23 24 24 26 27 27 23 22
21 23 23 28 36 31 29 28 24 20 24 33 54 58 48 48 44 43 46 42 35 36 44 45 41 39 33 27 29 28 27 24 25 26 25 24 25 24 23 24 23 23 22 25 28 29 26 21 21
19 24 25 31 30 24 34 42 29 30 25 18 60 56 43 28 49 58 56 46 39 38 30 37 37 34 30 29 28 24 23 22 24 24 22 20 22 23 24 22 22 21 24 27 25 24 21 20 20

GFSSGP_500_spd_069.txt.gz
Wind_Speed
42 42 40 38 40 36 27 21 25 26 32 36 32 26 22 22 13 9 10 16 12 7 4 7 9 5 6 5 9 13 16 17 17 16 17 18 19 18 17 17 18 18 17 16 18 18 19 21 22
45 46 42 41 43 36 28 23 27 34 43 39 38 37 32 30 14 14 18 22 23 18 16 12 12 7 6 5 10 13 15 16 17 16 16 17 17 18 20 19 19 17 17 17 20 22 24 25 26
44 41 47 45 43 35 29 27 35 43 42 40 40 37 31 30 14 15 23 28 30 29 21 16 14 12 4 7 10 13 14 17 17 20 19 19 19 19 20 22 22 17 17 17 19 21 24 27 28
43 47 48 46 40 35 32 33 42 46 39 40 37 35 34 17 12 20 25 32 34 33 27 19 17 14 7 7 8 12 15 16 19 22 22 22 24 25 24 23 22 18 14 17 19 21 23 27 29
48 45 44 47 40 38 38 38 47 45 38 38 39 36 30 21 18 25 26 33 37 31 23 18 14 15 7 8 10 12 15 17 18 20 20 22 23 25 23 21 20 19 18 18 20 21 23 26 28
44 49 50 37 40 43 42 42 51 46 36 41 37 36 28 22 21 27 33 35 37 37 26 22 17 17 11 11 12 13 15 17 18 20 21 22 24 26 24 20 20 20 21 21 22 23 24 26 27
44 50 46 34 41 46 42 43 52 47 36 37 41 41 31 27 24 32 35 33 36 32 31 27 22 21 19 16 15 14 15 17 19 21 23 23 25 25 24 20 21 21 21 22 24 24 25 26 25
40 47 46 41 37 43 38 44 53 49 37 40 45 41 39 33 31 33 29 33 31 27 30 33 26 23 22 21 19 14 15 16 19 22 23 24 24 24 23 21 22 23 23 23 24 26 25 25 25
45 46 42 45 37 48 38 49 53 54 39 43 46 44 37 34 33 31 28 33 30 32 31 27 23 23 22 22 22 15 14 16 18 21 23 24 24 24 23 22 22 24 25 25 26 27 27 26 26
48 52 45 40 36 40 50 59 51 56 43 38 46 47 41 36 36 32 31 30 30 28 27 20 19 21 24 24 22 17 14 15 19 20 23 23 23 22 22 23 24 26 27 28 27 29 29 28 27
45 44 50 50 49 41 48 54 51 53 51 42 43 45 45 42 39 31 31 26 28 27 28 21 22 25 24 26 21 16 18 18 18 20 22 24 23 22 23 26 27 28 28 30 29 30 29 29 28
46 40 41 52 53 48 46 51 57 51 54 47 40 45 46 44 41 41 35 27 28 29 29 29 23 25 23 23 19 19 21 17 16 18 22 24 23 25 24 27 29 31 29 30 31 30 30 29 29
47 45 43 43 40 49 47 52 57 63 54 50 46 41 48 47 47 41 43 44 37 35 33 28 32 32 28 25 27 27 22 20 24 21 24 26 22 24 25 27 30 32 32 30 31 32 32 30 30
48 47 47 48 48 47 46 39 47 51 52 51 55 44 44 48 50 49 39 37 34 29 33 32 31 35 34 33 32 30 23 23 21 24 25 25 24 22 25 26 29 33 33 33 33 33 32 32 30
42 45 46 47 47 48 48 46 40 35 55 60 48 57 44 47 50 51 52 49 44 39 38 37 36 36 40 36 33 32 27 27 25 29 27 26 26 23 24 26 29 33 34 35 36 33 32 33 31
39 43 44 46 45 44 46 46 41 46 47 67 60 63 61 50 48 50 51 52 55 54 48 44 43 43 41 41 38 44 29 29 31 32 30 28 27 26 24 27 29 34 35 37 38 33 32 33 32
39 42 44 44 44 45 47 47 45 50 49 50 61 64 65 63 57 51 53 55 56 57 56 51 46 44 43 46 44 46 38 38 34 34 33 31 31 28 26 27 29 35 37 39 38 33 33 33 32
40 43 45 45 46 47 46 46 46 47 51 51 53 61 69 59 65 64 52 54 56 58 57 57 53 47 45 46 45 40 39 37 35 30 33 34 34 30 28 27 29 34 37 40 37 32 33 34 31
41 43 45 46 49 49 49 48 47 47 50 53 54 57 61 64 80 74 71 60 61 64 64 63 60 52 48 49 50 47 38 36 32 33 33 39 36 32 31 27 30 35 37 40 34 33 34 36 30
40 43 44 47 49 53 52 50 49 49 52 55 56 58 59 61 62 72 75 75 65 66 71 70 64 57 55 53 46 49 45 43 39 38 36 40 39 35 32 29 31 35 38 38 34 34 35 36 32
38 42 45 48 49 51 56 54 53 54 55 55 56 58 60 62 63 64 65 67 68 72 72 67 66 59 59 59 57 54 46 42 46 38 40 41 39 35 31 31 33 35 37 38 36 35 36 35 32
36 40 43 46 49 53 54 58 55 57 58 59 60 62 62 61 63 64 65 64 68 70 75 73 69 70 65 65 61 57 51 50 42 43 41 43 41 40 36 37 35 35 37 37 37 35 37 34 32
33 38 41 46 49 54 52 59 58 59 60 61 62 65 65 65 65 65 65 64 65 65 68 77 71 72 72 65 60 58 51 49 44 45 46 46 47 42 39 37 38 37 38 37 37 36 36 33 32
25 31 37 39 41 49 47 51 53 55 58 63 69 69 70 70 68 67 66 66 64 64 64 65 69 62 64 60 57 51 48 42 40 39 41 46 44 42 42 39 42 39 38 36 36 36 36 31 30
28 34 44 51 53 49 45 47 48 52 51 61 66 71 73 73 73 70 68 67 67 64 63 66 65 66 59 56 57 51 39 34 32 34 40 45 49 48 48 44 44 39 38 37 36 35 34 30 29
28 32 38 49 51 51 40 48 46 42 47 48 59 66 69 74 77 76 73 70 67 67 65 64 63 61 60 59 56 50 42 32 35 38 40 43 44 50 49 45 43 39 37 37 35 35 32 30 28
30 32 37 38 37 42 44 37 38 30 39 41 42 52 61 70 74 78 79 76 72 70 65 66 64 61 60 57 55 50 37 35 38 42 43 40 43 47 47 43 40 36 36 36 34 34 30 30 28
29 32 32 32 39 37 30 29 26 34 35 38 41 42 43 50 65 73 75 80 78 72 67 62 63 61 58 58 53 48 42 40 44 46 42 40 39 39 43 41 38 33 35 35 33 31 29 28 29
28 30 31 32 33 31 34 30 24 24 26 27 29 39 43 46 56 63 68 75 78 74 69 65 59 57 59 56 47 52 48 44 44 46 43 40 41 40 38 39 34 32 32 31 31 29 28 27 28
31 27 30 32 28 30 35 26 25 28 29 29 28 32 38 44 47 47 53 66 74 69 70 67 57 54 52 57 50 50 45 46 42 43 43 39 38 34 34 35 30 29 29 29 29 27 27 26 27

GFSSGP_500_spd_072.txt.gz
Wind_Speed
37 45 45 43 42 40 32 27 24 32 35 39 38 37 32 26 20 14 11 6 5 11 10 8 14 8 6 7 9 11 12 14 15 16 18 18 19 18 18 18 18 20 18 17 15 15 17 18 20
54 43 43 48 45 40 33 31 30 32 37 39 39 39 31 20 18 18 15 11 8 13 15 17 17 12 9 5 9 11 13 15 15 17 18 17 17 18 19 20 21 20 19 17 17 18 19 19 21
46 59 45 50 48 40 37 35 30 34 40 42 41 39 34 23 22 21 17 10 11 17 22 20 15 16 9 7 8 11 13 16 18 19 19 20 21 23 23 23 22 21 19 18 18 20 21 23 26
40 50 51 47 46 41 41 36 33 37 42 46 41 37 33 32 28 24 22 9 15 19 23 23 23 19 12 10 9 11 14 16 18 19 20 21 22 24 24 24 23 20 18 17 18 20 22 25 27
41 47 52 55 40 44 44 41 37 40 46 51 47 38 33 35 34 33 21 12 18 23 24 26 18 13 13 11 11 11 13 14 16 18 20 21 22 23 25 25 23 21 19 19 20 22 24 25 27
44 45 50 55 41 48 50 54 46 45 48 52 49 42 33 40 34 27 20 18 22 25 23 23 19 14 15 15 13 13 13 13 15 18 20 22 24 25 26 26 25 23 22 23 23 24 27 27 28
49 47 43 46 42 46 49 54 50 48 50 46 45 41 37 36 34 29 25 28 26 27 24 25 25 21 18 18 17 16 13 12 13 16 20 22 23 24 26 26 25 25 25 26 27 28 29 30 29
47 49 45 44 42 44 43 57 48 51 52 48 40 42 41 39 35 26 22 30 28 28 29 26 26 26 23 22 20 18 14 11 13 14 18 21 22 23 24 25 25 26 27 26 28 29 30 31 30
50 49 47 44 39 44 43 53 47 52 51 47 40 41 45 40 40 33 31 28 27 29 28 24 25 25 26 24 22 19 13 10 10 13 15 18 20 20 21 22 24 26 28 29 28 29 32 33 32
53 52 46 43 40 49 47 46 50 50 53 49 42 44 44 47 41 37 31 28 24 28 27 25 22 23 21 23 24 20 14 11 10 14 14 16 19 20 20 21 23 26 29 30 29 28 31 34 33
55 54 47 48 42 46 40 48 63 47 50 49 42 46 33 43 46 47 41 34 29 26 27 25 25 20 22 22 23 19 15 13 13 15 12 16 19 21 20 21 23 25 27 30 32 31 32 34 34
53 52 50 46 42 47 41 43 61 64 45 49 46 45 39 38 43 45 48 42 34 32 32 25 25 25 25 25 23 22 16 16 15 13 13 16 19 22 21 21 22 25 27 30 33 34 35 36 34
51 51 51 49 46 44 44 49 48 71 50 48 52 47 47 41 43 48 47 46 42 45 34 33 28 28 25 25 26 19 20 20 20 17 19 16 18 20 22 21 23 25 27 30 33 35 36 36 34
52 51 53 53 51 48 46 45 51 44 62 49 56 47 51 47 46 49 49 49 50 39 37 30 29 28 28 28 26 20 23 25 23 20 20 18 20 21 23 23 24 26 26 30 34 36 37 36 33
49 51 52 50 51 52 52 42 42 48 52 64 58 60 49 52 50 49 50 49 54 49 35 34 34 35 28 32 32 27 33 27 27 25 26 21 21 24 26 25 26 29 27 29 35 37 38 35 31
40 45 48 48 48 49 47 42 40 44 49 56 64 68 57 55 54 52 55 49 52 52 49 43 42 38 33 33 34 35 33 34 32 27 34 17 24 25 28 27 28 31 28 29 34 37 37 33 31
35 37 40 42 45 46 46 48 43 45 49 43 69 65 72 59 59 59 59 58 55 48 45 45 45 36 37 40 36 39 36 36 35 35 30 27 30 30 28 28 31 33 29 30 34 38 37 33 32
36 37 38 39 42 42 42 46 45 45 47 45 48 63 64 69 61 59 63 61 58 59 56 51 47 45 42 43 45 47 42 40 37 38 31 28 31 32 30 30 33 36 31 32 34 38 38 34 34
36 37 39 40 42 43 43 43 44 43 46 46 48 52 50 78 69 64 61 63 62 60 61 57 54 50 52 51 49 50 46 42 34 36 35 39 30 33 30 31 37 38 34 33 34 37 38 36 36
36 39 41 42 43 45 44 43 45 45 45 49 51 53 56 56 68 75 67 62 62 64 61 57 61 58 57 58 57 54 52 46 40 37 40 36 31 32 29 32 35 37 35 35 36 37 38 37 36
36 39 41 43 44 47 49 47 46 47 48 51 53 53 53 56 60 59 80 75 67 64 65 62 62 65 65 65 65 62 56 55 51 38 37 39 30 35 34 33 38 39 37 36 38 37 37 38 37
32 37 40 42 44 45 47 52 49 48 48 52 54 57 56 57 60 62 68 76 76 74 70 66 65 67 66 66 69 63 55 53 50 40 33 37 42 40 38 37 41 43 42 39 38 37 37 39 37
31 34 36 38 40 45 43 51 53 52 51 52 53 56 60 61 62 64 66 70 76 78 80 78 73 68 67 68 69 66 60 55 53 46 42 48 48 44 39 43 42 45 45 43 37 39 38 40 37
29 31 33 37 37 42 41 44 48 50 51 56 57 59 63 63 64 65 67 68 71 73 74 74 84 77 72 76 69 65 65 60 56 46 44 46 46 46 41 42 44 45 45 45 39 39 40 40 37
25 25 31 34 35 35 41 47 46 51 51 52 57 61 64 68 69 67 68 70 72 71 73 73 71 68 70 68 70 64 61 63 46 48 51 49 49 45 44 43 43 49 52 47 42 40 40 39 37
22 23 26 35 35 35 38 45 49 53 56 57 59 59 62 66 71 72 73 71 72 74 74 74 75 71 68 67 67 66 60 53 44 45 46 48 50 48 43 40 38 46 53 51 46 39 39 36 36
24 20 25 31 35 38 39 41 49 45 50 49 48 47 52 61 65 72 76 76 75 74 73 75 74 71 70 68 64 63 61 56 45 38 43 49 52 47 41 39 42 48 52 48 43 40 38 34 35
22 23 27 33 38 43 39 41 42 24 21 25 25 27 33 43 55 66 72 77 78 77 76 72 71 71 70 69 67 64 62 53 45 40 43 48 50 45 42 43 46 43 43 38 42 38 36 33 34
21 23 28 33 36 41 44 40 30 22 21 22 23 29 30 33 41 52 65 74 76 78 77 74 71 69 67 68 66 63 60 55 44 42 43 49 46 43 45 47 43 41 41 35 40 35 33 32 33
22 23 27 32 35 39 39 21 20 21 23 26 25 28 26 26 29 40 54 65 70 76 75 75 73 70 65 63 64 62 58 52 47 47 49 48 43 45 51 47 43 40 33 31 35 32 31 32 30

GFSSGP_500_spd_075.txt.gz
Wind_Speed
41 45 46 46 43 39 35 32 30 30 33 35 37 32 29 22 18 9 12 8 9 4 1 5 9 9 6 8 10 11 13 14 15 17 19 18 18 18 17 18 18 17 16 15 15 15 15 17 19
44 47 47 53 50 44 37 36 35 32 33 38 37 36 30 23 22 18 17 16 12 6 4 9 11 11 6 4 8 9 12 12 13 14 15 17 18 19 20 21 20 21 19 18 17 17 18 19 19
40 43 51 42 46 47 41 42 38 35 35 36 42 40 37 32 27 21 20 19 15 5 6 11 13 11 8 4 5 8 10 11 12 14 15 16 18 19 19 20 19 19 18 18 18 18 20 21 22
42 41 51 49 35 44 43 48 41 39 37 37 40 44 42 38 27 28 29 25 25 7 9 13 13 12 9 7 7 7 10 13 13 13 14 16 18 19 20 20 20 20 21 20 19 20 22 24 25
44 43 47 52 46 47 42 55 51 43 41 38 40 44 44 40 32 30 30 24 24 10 11 14 17 11 9 9 8 9 11 13 13 13 14 15 16 18 19 19 20 20 20 21 21 22 23 25 26
48 46 46 47 45 48 42 52 49 42 44 41 41 44 43 41 38 35 34 32 27 23 18 16 20 11 11 11 11 11 13 12 12 11 12 15 16 17 18 21 22 22 22 22 23 24 25 29 29
50 51 51 47 40 48 47 44 64 51 44 46 43 43 42 42 38 34 37 34 26 22 20 16 18 17 18 17 14 14 15 13 11 11 11 13 15 17 19 21 21 23 24 26 27 28 28 29 31
50 51 55 48 40 42 48 50 47 62 45 50 43 43 43 37 35 38 34 37 29 22 18 18 20 23 23 23 19 17 16 13 10 10 10 12 14 17 18 20 21 22 24 25 27 29 30 29 30
47 55 56 52 45 46 41 51 49 69 47 49 44 42 41 40 38 40 40 41 34 27 22 24 23 24 23 24 24 21 18 14 11 10 12 12 14 16 18 19 20 21 23 26 27 29 31 32 32
47 51 57 51 50 49 47 47 53 55 51 47 45 42 40 41 42 42 42 37 38 31 28 28 25 22 23 22 23 22 18 14 12 11 12 10 12 14 17 18 19 20 22 25 28 30 33 35 35
45 52 49 56 53 49 49 48 46 41 67 46 44 44 39 41 45 45 42 41 37 30 34 28 28 25 26 23 24 22 18 16 14 13 13 10 11 14 16 17 18 19 21 23 27 30 33 36 37
47 50 51 51 54 54 50 44 48 48 60 50 47 50 43 46 50 49 46 47 44 40 38 27 29 30 23 26 26 25 22 19 17 15 14 14 15 15 16 17 20 20 20 23 26 29 32 35 38
42 51 51 48 53 54 51 47 44 44 54 58 53 52 49 50 52 51 48 48 48 46 41 37 38 44 37 26 31 34 26 27 22 18 17 18 17 15 16 18 20 22 22 22 26 27 31 34 38
37 46 49 48 50 52 50 48 48 43 47 61 61 56 56 56 56 58 57 55 53 54 52 47 45 39 49 35 39 31 33 31 23 23 20 20 20 19 18 19 21 24 25 23 26 28 31 33 37
33 37 44 46 50 51 52 51 47 47 50 50 63 57 62 57 60 58 61 57 58 60 56 54 55 54 36 39 33 26 32 35 32 27 24 25 26 24 21 21 22 27 27 27 27 29 31 34 35
30 31 36 42 47 51 52 51 50 54 49 45 58 62 59 59 62 62 57 57 59 60 56 57 61 59 47 42 43 36 32 26 29 32 32 29 30 32 22 22 26 28 30 29 28 30 31 34 35
31 32 33 37 44 49 51 51 48 46 44 42 43 68 63 65 63 61 62 62 61 59 58 71 56 57 52 39 45 46 43 37 35 36 29 29 31 32 28 22 28 30 31 32 30 32 32 34 35
34 34 35 36 39 42 46 47 45 44 44 42 40 41 71 65 64 68 68 63 65 66 65 61 61 56 46 45 41 45 30 34 34 31 34 38 34 33 24 29 21 29 33 31 31 33 32 36 34
34 35 37 38 39 41 40 42 42 41 42 41 43 40 45 62 69 67 66 68 65 64 63 63 58 52 58 57 52 37 37 41 38 37 34 37 37 35 34 30 26 32 34 30 30 33 32 36 35
35 37 37 37 38 40 40 40 42 40 41 41 42 42 42 48 54 81 65 67 69 66 66 68 68 58 56 49 39 40 43 41 44 46 43 39 42 42 44 19 24 30 34 32 32 34 34 38 36
33 36 39 40 39 40 41 41 40 43 42 44 44 45 47 48 50 61 73 72 70 69 68 70 72 73 67 48 54 39 47 48 47 45 44 42 47 42 54 35 21 32 36 35 37 37 35 38 37
30 34 35 36 38 38 40 44 40 42 45 47 47 47 49 51 53 54 59 69 84 75 73 73 71 69 66 66 68 67 59 55 50 48 48 49 50 52 50 38 31 34 39 39 40 40 37 40 39
30 31 32 33 33 35 32 42 41 40 42 44 47 51 53 54 56 58 60 62 64 72 80 78 77 77 76 75 73 73 71 65 57 57 55 53 44 43 49 40 41 47 44 42 43 43 42 41 42
31 30 31 31 31 33 31 34 41 38 41 42 44 48 54 57 58 59 61 62 65 67 65 76 81 79 77 76 77 76 76 69 64 64 56 46 43 45 44 42 45 48 47 46 43 44 44 48 43
30 27 29 29 29 31 31 35 35 35 39 44 45 45 49 53 59 62 62 64 66 68 72 70 67 84 79 77 75 75 74 70 67 62 56 44 44 48 45 46 49 52 53 48 41 42 45 49 46
31 29 27 30 28 29 31 35 31 33 38 47 51 50 50 54 56 57 65 67 67 69 71 72 71 65 85 84 78 75 71 69 67 62 56 37 40 46 54 50 50 52 52 48 40 45 49 47 44
31 28 26 27 27 30 30 28 30 30 34 43 49 53 55 56 59 62 62 64 70 72 70 72 73 71 67 73 79 76 71 69 68 68 55 39 40 50 53 50 51 53 54 46 43 48 48 44 40
34 28 25 24 27 26 25 25 27 29 31 40 46 51 53 54 58 63 66 68 67 70 73 72 73 74 72 70 70 69 65 63 66 62 53 41 40 50 46 51 51 54 48 45 46 45 42 40 37
30 27 26 26 26 28 28 26 29 20 27 33 38 40 41 38 39 45 60 71 74 73 71 74 74 72 74 73 71 70 67 62 61 57 48 40 46 56 50 51 55 49 46 45 44 41 45 40 32
31 28 28 29 30 30 28 22 24 20 24 33 37 40 34 32 35 38 39 44 62 81 78 73 74 74 72 74 74 72 68 63 61 56 50 43 47 49 50 50 50 46 47 45 43 43 42 30 32

GFSSGP_500_spd_078.txt.gz
Wind_Speed
45 45 50 47 42 42 39 42 37 36 37 38 36 33 32 28 24 18 16 16 11 11 8 4 2 3 2 1 3 5 8 11 12 12 12 13 15 17 18 17 17 16 15 14 14 15 16 18 20
42 46 43 49 48 45 41 42 40 40 39 37 38 37 33 32 30 26 21 19 18 15 12 6 6 4 4 3 1 4 7 10 12 11 10 11 14 16 17 17 16 15 14 14 13 13 15 17 19
47 45 41 57 54 53 47 44 46 47 41 38 39 38 39 40 31 24 22 22 21 16 12 9 8 7 6 7 4 3 5 9 11 10 9 9 11 13 15 14 14 13 13 14 14 15 15 17 19
44 43 45 44 47 48 53 52 53 46 43 40 37 40 45 40 34 28 24 23 25 21 13 11 9 10 8 7 7 5 5 8 10 10 9 9 10 11 13 13 14 16 17 18 18 18 19 20 21
44 44 44 43 48 57 47 51 55 46 44 42 41 45 48 46 40 31 28 28 29 23 17 14 12 12 10 8 8 8 7 8 8 9 8 8 9 11 12 12 12 15 18 19 21 22 22 23 25
44 45 47 49 47 52 57 48 40 57 43 45 42 42 49 49 43 37 34 32 34 32 24 17 17 16 13 10 11 11 10 10 9 8 8 8 9 11 13 13 14 15 18 20 21 23 24 25 27
40 45 46 49 54 49 49 54 54 49 51 44 49 44 44 45 42 37 38 36 35 34 29 21 17 17 18 17 16 15 14 11 10 10 7 8 10 11 11 12 14 17 18 20 22 22 24 27 29
31 39 45 49 51 48 47 47 53 51 61 50 44 45 46 45 42 40 42 39 38 37 34 34 22 21 20 21 20 20 19 14 12 10 9 8 9 11 10 12 14 16 18 20 23 25 25 27 30
37 38 38 42 50 46 49 50 51 51 48 60 49 45 45 46 45 45 44 44 41 39 37 35 30 28 26 25 24 24 23 20 14 12 10 9 8 9 10 14 14 15 17 19 22 25 27 30 32
38 40 36 36 44 50 52 55 56 48 50 64 49 49 47 49 49 48 46 45 44 42 40 38 32 31 31 29 28 27 25 24 19 14 12 11 8 10 11 15 15 15 16 18 20 24 28 30 32
37 38 38 40 42 43 54 57 52 53 50 41 68 57 51 51 53 51 50 47 46 48 45 36 36 36 36 33 32 30 27 26 22 18 15 13 11 10 13 14 15 14 15 17 19 23 27 29 32
38 39 41 43 43 44 45 55 56 51 52 51 48 69 57 58 57 56 55 52 49 51 49 41 40 37 35 32 33 32 29 27 25 22 21 16 14 13 16 15 16 16 18 18 19 21 26 27 30
35 37 38 43 46 47 47 50 57 53 52 53 47 58 62 60 59 59 59 56 55 58 53 49 50 51 40 39 40 33 31 31 30 28 24 20 18 17 18 17 18 19 19 19 21 22 26 28 30
36 33 35 41 45 50 51 47 54 55 56 52 37 47 65 64 60 62 64 61 60 64 63 58 54 43 47 49 49 45 38 36 35 31 28 25 20 19 21 21 20 21 19 22 21 24 24 28 28
32 30 32 35 40 47 51 51 49 54 58 51 48 46 62 64 64 65 68 67 65 63 60 65 57 49 54 49 46 43 44 43 40 37 35 29 25 23 23 23 24 25 25 21 23 25 24 27 29
32 31 31 33 34 38 44 46 51 59 58 53 47 42 40 67 67 68 72 72 71 68 65 61 57 58 57 50 47 54 46 45 41 48 41 34 30 28 27 28 26 30 29 19 22 23 25 27 29
34 32 36 34 30 36 36 41 50 53 54 52 50 48 48 56 72 72 77 78 76 72 66 65 68 60 61 52 55 51 45 49 46 47 38 36 34 31 31 28 34 37 34 12 19 23 26 27 29
37 32 37 34 38 34 36 39 44 50 52 52 51 50 48 48 75 75 77 81 76 77 74 71 69 66 70 62 63 55 59 47 49 36 34 33 40 28 30 28 30 39 29 34 22 22 23 26 28
35 36 36 37 39 39 37 37 39 44 49 51 51 47 44 43 55 75 74 79 74 63 76 75 76 75 73 69 65 67 64 55 48 42 41 42 26 27 31 31 34 36 42 39 37 23 26 28 30
36 38 37 40 38 40 39 40 39 39 42 45 46 45 42 45 40 77 74 76 78 81 67 78 79 71 68 71 73 68 62 59 52 51 37 33 27 27 32 34 35 38 40 44 37 31 28 32 35
32 35 39 41 41 40 42 39 40 40 41 43 44 44 44 45 45 48 76 75 77 82 77 80 65 70 67 69 68 72 59 58 47 49 38 32 33 28 33 36 36 32 45 42 35 39 33 35 36
31 35 35 37 38 38 42 41 42 38 41 43 44 44 43 46 48 49 52 64 76 78 75 75 77 73 80 79 71 75 73 61 55 53 41 37 31 36 36 39 40 45 39 37 38 42 39 37 40
31 35 34 35 35 35 32 39 36 37 37 40 41 44 46 48 48 50 50 54 54 62 77 89 83 77 74 74 75 70 71 68 44 41 42 46 35 42 41 41 40 43 40 46 43 39 39 38 44
33 33 33 33 33 33 28 30 29 36 27 35 38 39 43 46 49 50 52 54 56 57 54 80 88 79 84 74 74 67 65 64 59 65 67 44 42 47 43 42 45 42 43 46 46 42 42 43 45
32 33 29 23 24 22 35 27 29 32 28 32 37 38 40 43 46 50 53 54 56 58 58 57 74 81 79 80 78 78 70 63 58 58 57 52 54 54 46 44 50 43 46 50 45 45 44 46 45
27 32 29 25 21 20 32 32 25 25 30 34 39 41 42 44 45 47 51 56 58 60 62 63 65 65 68 88 80 83 82 77 70 62 60 59 58 54 51 51 51 39 44 47 43 42 45 46 49
31 37 35 37 36 35 32 27 25 24 30 35 38 41 43 45 46 48 51 53 55 59 63 64 67 68 69 68 69 81 92 82 80 75 71 67 61 60 55 51 49 46 52 48 44 45 48 46 47
33 32 34 31 33 32 27 24 18 20 22 28 34 42 45 49 51 54 55 55 58 61 62 64 67 69 72 71 70 72 67 80 89 82 82 73 70 61 51 49 47 52 57 52 50 52 51 47 46
33 32 34 32 34 31 28 17 27 20 23 30 34 37 41 44 42 45 50 59 62 62 65 66 66 68 72 73 72 73 70 69 69 74 80 74 66 57 49 56 54 56 57 57 54 56 50 46 44
30 33 32 33 29 33 37 32 25 25 27 28 31 31 36 40 42 45 46 49 53 61 66 68 71 70 68 72 72 74 72 68 66 61 65 68 61 50 49 54 52 52 51 49 52 51 47 46 42